Simultaneous Nadir Overpasses (SNOs) Predictions

Prediction of SNOs between GOES-15 and METOP-B Satellite Orbit:

Table of predicted SNOs for the next 14.0 days since TLE Epoch: 8/3/2024
Index Date Time (GOES-15) GOES-15 Lat,Lon METOP-B Lat,Lon Distance(km) Time Diff (sec)
1 08/03/2024 05:28:08 0.00, 61.38 0.80, 57.85 402.46 80
2 08/04/2024 05:10:10 0.03, 61.41 -0.31, 62.83 162.01 80
3 08/05/2024 17:26:34 0.02, 61.58 -0.71, 58.21 383.85 80
4 08/06/2024 17:08:35 -0.00, 61.61 0.35, 63.20 180.87 80
5 08/08/2024 05:24:50 -0.04, 61.54 0.63, 58.60 335.44 80
6 08/09/2024 05:06:53 -0.02, 61.58 -0.49, 63.58 229.08 80
7 08/10/2024 17:23:15 0.06, 61.75 -0.57, 58.97 317.18 80
8 08/11/2024 17:05:17 0.04, 61.78 0.49, 63.96 247.20 80
9 08/13/2024 05:21:32 -0.08, 61.72 0.47, 59.36 269.75 80
10 08/14/2024 05:03:34 -0.05, 61.77 -0.61, 64.35 294.04 80
11 08/15/2024 17:19:57 0.09, 61.95 -0.38, 59.72 253.58 80
12 08/16/2024 17:01:57 0.06, 62.00 0.64, 64.72 309.86 80
